Stations météo

réclame
Mon MeteoGroup
Shoeburyness Landwick, Grande-Bretagne (3693): Température de l'air & dewpoint: 26.11.2020 02:00:00 - 02.12.2020 02:00:00 (GMT)Shoeburyness Landwick, Grande-Bretagne (3693): Température de l'air -20cm & Température de l'air -100cm: 26.11.2020 02:00:00 - 02.12.2020 02:00:00 (GMT)Shoeburyness Landwick, Grande-Bretagne (3693): Vitesse du vent & gusts: 26.11.2020 02:00:00 - 02.12.2020 02:00:00 (GMT)Shoeburyness Landwick, Grande-Bretagne (3693): Direction du vent: 26.11.2020 02:00:00 - 02.12.2020 02:00:00 (GMT)Shoeburyness Landwick, Grande-Bretagne (3693): reduced air pressure: 26.11.2020 02:00:00 - 02.12.2020 02:00:00 (GMT)Shoeburyness Landwick, Grande-Bretagne (3693): visibility: 26.11.2020 02:00:00 - 02.12.2020 02:00:00 (GMT)Shoeburyness Landwick, Grande-Bretagne (3693): Ensoleillement: 26.11.2020 02:00:00 - 02.12.2020 02:00:00 (GMT)Shoeburyness Landwick, Grande-Bretagne (3693): Quantités de précipitations: 26.11.2020 02:00:00 - 02.12.2020 02:00:00 (GMT)
Date & Time tt [°C] td [°C] tt -20cm [°C] tt -100cm [°C] ff [km/h] ff [knt] fx [km/h] fx [knt] dd ppp [hPa] vv [km] sd [min] rr [mm]
02.12.2020 02:00:00 2,4 1,7 - - 13 7 - - NW 1023,5 10 0 0,0
02.12.2020 01:00:00 2,7 2,1 - - 15 8 - - NNW 1024,0 13 0 0,0
02.12.2020 00:00:00 3,5 2,7 - - 15 8 - - NNW 1024,3 14 - 0,0
01.12.2020 23:00:00 2,4 1,7 - - 11 6 - - NW 1024,7 14 0 0,0
01.12.2020 22:00:00 3,2 2,4 - - 13 7 - - NNW 1024,9 18 0 0,0
01.12.2020 21:00:00 4,3 3,1 - - 13 7 - - NNW 1025,3 21 0 0,0
01.12.2020 20:00:00 4,4 3,1 - - 13 7 - - NNW 1025,0 18 0 0,0
01.12.2020 19:00:00 5,4 4,1 - - 16 9 - - NNW 1024,9 21 0 0,0
01.12.2020 18:00:00 5,2 3,8 - - 18 10 - - NNW 1024,7 15 0 0,0
01.12.2020 17:00:00 5,8 4,1 - - 18 10 - - NNW 1024,7 17 0 0,0
01.12.2020 16:00:00 6,6 4,4 - - 21 11 - - NNW 1024,5 23 18 0,0
01.12.2020 15:00:00 6,8 4,3 - - 21 11 - - NNW 1024,5 20 24 0,0
01.12.2020 14:00:00 7,8 4,7 - - 26 14 - - NNW 1024,3 27 48 0,0
01.12.2020 13:00:00 7,9 4,4 - - 28 15 - - NNW 1024,3 30 54 0,0
01.12.2020 12:00:00 7,4 4,5 - - 26 14 - - NNW 1024,3 21 60 0,0
01.12.2020 11:00:00 6,3 3,5 - - 28 15 - - NNW 1024,3 22 60 0,0
01.12.2020 10:00:00 5,3 2,9 - - 29 16 - - NNW 1024,3 30 60 0,0
01.12.2020 09:00:00 4,4 2,4 8,4 11,2 29 16 - - NNW 1023,8 45 30 0,0
01.12.2020 08:00:00 3,2 1,6 - - 22 12 - - NW 1023,5 40 0 0,0
01.12.2020 07:00:00 3,6 1,9 - - 22 12 - - NNW 1023,2 45 0 0,0
01.12.2020 06:00:00 3,9 1,9 - - 24 13 - - NW 1022,7 40 0 0,0
01.12.2020 05:00:00 3,9 1,7 - - 22 12 - - NW 1022,3 50 0 0,0
01.12.2020 04:00:00 4,1 1,6 - - 24 13 - - NW 1021,9 50 0 0,0
01.12.2020 03:00:00 4,6 1,6 - - 22 12 - - NW 1021,7 50 0 0,0
01.12.2020 02:00:00 5,0 1,7 - - 26 14 - - NW 1021,4 50 0 0,0
01.12.2020 01:00:00 5,6 2,1 - - 26 14 - - NW 1021,0 50 0 0,0
01.12.2020 00:00:00 6,2 3,0 - - 24 13 - - NNW 1021,0 50 - 0,0
30.11.2020 23:00:00 6,8 3,7 - - 28 15 - - NNW 1020,5 50 0 0,0
30.11.2020 22:00:00 7,9 4,8 - - 28 15 48 26 NNW 1020,1 50 0 0,0
30.11.2020 21:00:00 9,7 6,3 - - 31 17 46 25 NW 1018,7 50 0 0,0
30.11.2020 20:00:00 9,9 7,7 - - 24 13 - - WNW 1018,2 45 0 0,0
30.11.2020 19:00:00 9,2 7,7 - - 21 11 - - WNW 1018,6 14 0 0,0
30.11.2020 18:00:00 8,7 7,5 - - 18 10 - - W 1018,6 8 0 0,0
30.11.2020 17:00:00 8,4 7,4 - - 22 12 - - W 1018,9 6 0 0,4
30.11.2020 16:00:00 8,2 6,8 - - 16 9 - - W 1020,0 7 0 0,0
30.11.2020 15:00:00 7,5 6,4 - - 22 12 - - W 1020,0 8 0 0,0
30.11.2020 14:00:00 6,4 5,5 - - 18 10 - - W 1021,3 10 0 0,2
30.11.2020 13:00:00 6,8 5,8 - - 18 10 - - W 1022,3 8 0 0,0
30.11.2020 12:00:00 6,8 5,9 - - 16 9 - - WSW 1023,2 9 0 0,0
30.11.2020 11:00:00 6,6 6,4 - - 15 8 - - W 1024,8 3,8 0 0,0
30.11.2020 10:00:00 6,8 6,6 - - 15 8 - - W 1025,1 2,3 0 0,0
30.11.2020 09:00:00 6,4 6,2 8,7 11,2 16 9 - - W 1025,2 2,2 0 0,0
30.11.2020 08:00:00 6,7 6,2 - - 15 8 - - W 1025,6 3,8 0 0,0
30.11.2020 07:00:00 7,1 6,6 - - 15 8 - - W 1025,8 3,5 0 0,0
30.11.2020 06:00:00 6,8 6,5 - - 11 6 - - WNW 1025,9 3,2 0 0,0
30.11.2020 05:00:00 6,9 6,3 - - 9 5 - - WNW 1025,8 3,0 0 0,0
30.11.2020 04:00:00 7,5 6,8 - - 11 6 - - WSW 1025,8 3,2 0 0,0
30.11.2020 03:00:00 7,1 6,4 - - 8 4 - - WSW 1026,4 3,5 0 0,0
30.11.2020 02:00:00 7,0 6,0 - - 11 6 - - WNW 1026,6 3,1 0 0,0
30.11.2020 01:00:00 7,1 6,1 - - 11 6 - - W 1026,7 2,9 0 0,0
30.11.2020 00:00:00 7,3 6,4 - - 8 4 - - W 1026,8 3,3 - 0,0
29.11.2020 23:00:00 7,1 6,2 - - 5 3 - - NW 1027,1 3,6 0 0,0
29.11.2020 22:00:00 7,2 6,0 - - 4 2 - - W 1027,0 4,8 0 0,0
29.11.2020 21:00:00 7,2 6,0 - - 4 2 - - NW 1027,1 4,8 0 0,0
29.11.2020 20:00:00 7,3 6,0 - - 4 2 - - SW 1026,9 6 0 0,0
29.11.2020 19:00:00 7,4 6,0 - - 4 2 - - NNW 1027,2 6 0 0,0
29.11.2020 18:00:00 7,7 6,0 - - 5 3 - - N 1027,0 8 0 0,0
29.11.2020 17:00:00 7,9 6,1 - - 8 4 - - NNE 1026,7 9 0 0,0
29.11.2020 16:00:00 8,2 6,2 - - 4 2 - - ENE 1026,4 9 0 0,0
29.11.2020 15:00:00 8,4 6,8 - - 8 4 - - NE 1026,4 6 0 0,0
29.11.2020 14:00:00 8,6 6,5 - - 8 4 - - E 1026,0 9 0 0,0
29.11.2020 13:00:00 8,7 7,2 - - 8 4 - - ENE 1026,2 7 0 0,0
29.11.2020 12:00:00 8,6 7,3 - - 8 4 - - ENE 1026,2 6 0 0,0
29.11.2020 11:00:00 8,5 7,2 - - 9 5 - - E 1026,3 8 0 0,0
29.11.2020 10:00:00 8,1 7,0 - - 11 6 - - ENE 1026,3 8 0 0,0
29.11.2020 09:00:00 7,9 7,1 8,5 11,4 13 7 - - ENE 1026,0 6 0 0,0
29.11.2020 08:00:00 7,7 7,5 - - 11 6 - - ENE 1025,6 8 0 0,0
29.11.2020 07:00:00 7,6 7,6 - - 13 7 - - ENE 1024,7 6 0 0,0
29.11.2020 06:00:00 7,7 7,7 - - 11 6 - - NE 1024,5 3,1 0 0,0
29.11.2020 05:00:00 7,3 7,3 - - 13 7 - - NNE 1024,1 2,3 0 0,0
29.11.2020 04:00:00 6,1 6,1 - - 8 4 - - NNW 1023,9 0,1 0 0,2
29.11.2020 03:00:00 6,5 6,5 - - 11 6 - - NNE 1023,7 0,2 0 0,0
29.11.2020 02:00:00 6,5 6,5 - - 11 6 - - N 1023,5 0,2 0 0,0
29.11.2020 01:00:00 6,1 6,1 - - 11 6 - - N 1023,2 0,8 0 0,0
29.11.2020 00:00:00 4,2 4,2 - - 9 5 - - NNW 1023,1 0,1 - 0,0
28.11.2020 23:00:00 4,3 4,2 - - 9 5 - - NNW 1022,6 0,1 0 0,0
28.11.2020 22:00:00 4,2 4,1 - - 9 5 - - N 1022,4 0,1 0 0,0
28.11.2020 21:00:00 5,0 4,9 - - 9 5 - - NE 1021,9 0,2 0 0,0
28.11.2020 20:00:00 5,7 5,6 - - 11 6 - - N 1021,7 1,0 0 0,0
28.11.2020 19:00:00 6,2 6,1 - - 9 5 - - NNE 1021,3 1,1 0 0,0
28.11.2020 18:00:00 6,1 5,8 - - 9 5 - - NE 1020,7 1,2 0 0,0
28.11.2020 17:00:00 6,6 6,1 - - 9 5 - - NE 1020,4 1,4 0 0,0
28.11.2020 16:00:00 8,7 8,0 - - 13 7 - - ENE 1019,9 3,0 18 0,0
28.11.2020 15:00:00 10,2 8,8 - - 11 6 - - E 1019,3 5 54 0,0
28.11.2020 14:00:00 10,9 9,2 - - 13 7 - - E 1019,0 6 60 0,0
28.11.2020 13:00:00 11,3 9,1 - - 15 8 - - E 1018,8 8 60 0,0
28.11.2020 12:00:00 11,2 9,2 - - 11 6 - - E 1018,6 7 42 0,0
28.11.2020 11:00:00 10,7 9,0 - - 11 6 - - ESE 1018,6 6 42 0,0
28.11.2020 10:00:00 10,2 9,0 - - 9 5 - - ESE 1018,5 5 12 0,0
28.11.2020 09:00:00 8,9 8,3 8,5 11,5 5 3 - - ESE 1018,1 3,6 0 0,0
28.11.2020 08:00:00 8,7 8,0 - - 8 4 - - S 1017,7 3,2 0 0,0
28.11.2020 07:00:00 8,1 7,4 - - 9 5 - - ESE 1016,9 3,2 0 0,0
28.11.2020 06:00:00 8,7 7,7 - - 13 7 - - SE 1016,6 4,2 0 0,0
28.11.2020 05:00:00 8,6 7,7 - - 11 6 - - SE 1016,4 3,5 0 0,0
28.11.2020 04:00:00 8,2 7,2 - - 15 8 - - SE 1016,1 3,3 0 0,0
28.11.2020 03:00:00 8,8 7,6 - - 16 9 - - ESE 1016,1 3,6 0 0,0
28.11.2020 02:00:00 9,5 8,1 - - 16 9 - - ESE 1016,3 3,6 0 0,0
28.11.2020 01:00:00 9,8 8,3 - - 16 9 - - ESE 1016,4 3,7 0 0,0
28.11.2020 00:00:00 9,7 8,1 - - 21 11 - - ESE 1016,3 4,6 - 0,0
27.11.2020 23:00:00 9,6 8,1 - - 18 10 - - E 1016,5 6 0 0,0
27.11.2020 22:00:00 9,4 7,6 - - 18 10 - - ESE 1016,7 8 0 0,0
27.11.2020 21:00:00 9,2 7,3 - - 18 10 - - ESE 1016,9 11 0 0,0
27.11.2020 20:00:00 8,4 7,1 - - 18 10 - - ESE 1017,0 15 0 0,0
27.11.2020 19:00:00 4,5 4,0 - - 5 3 - - NNE 1017,4 5 0 0,0
27.11.2020 18:00:00 5,1 4,7 - - 9 5 - - NNE 1017,3 5 0 0,0
27.11.2020 17:00:00 5,4 4,8 - - 9 5 - - NNE 1017,4 6 0 0,0
27.11.2020 16:00:00 5,9 5,2 - - 8 4 - - N 1017,5 7 0 0,0
27.11.2020 15:00:00 6,5 5,8 - - 11 6 - - NNE 1017,4 6 0 0,2
27.11.2020 14:00:00 6,3 5,6 - - 8 4 - - N 1017,8 8 0 0,0
27.11.2020 13:00:00 5,4 4,8 - - 11 6 - - N 1018,4 6 0 0,0
27.11.2020 12:00:00 5,4 4,9 - - 9 5 - - N 1019,0 7 0 0,0
27.11.2020 11:00:00 5,1 5,0 - - 8 4 - - NNE 1019,6 8 0 0,0
27.11.2020 10:00:00 3,6 3,6 - - 9 5 - - N 1020,1 7 0 0,0
27.11.2020 09:00:00 2,0 2,0 8,7 11,7 9 5 - - NNW 1020,2 8 0 0,2
27.11.2020 08:00:00 0,7 0,7 - - 9 5 - - NNW 1020,2 3,1 0 0,0
27.11.2020 07:00:00 0,5 0,5 - - 11 6 - - NNW 1020,0 2,8 0 0,0
27.11.2020 06:00:00 -0,2 -0,2 - - 8 4 - - N 1020,2 2,1 0 0,0
27.11.2020 05:00:00 -0,2 -0,2 - - 8 4 - - N 1020,3 2,9 0 0,0
27.11.2020 04:00:00 0,2 0,2 - - 8 4 - - N 1020,5 2,9 0 0,0
27.11.2020 03:00:00 0,1 0,1 - - 11 6 - - N 1020,6 1,6 0 0,0
27.11.2020 02:00:00 0,5 0,4 - - 9 5 - - NNW 1020,9 0,9 0 0,0
27.11.2020 01:00:00 1,2 1,2 - - 9 5 - - NNW 1020,9 0,1 0 0,0
27.11.2020 00:00:00 1,0 0,9 - - 9 5 - - NNW 1021,1 0,1 - 0,0
26.11.2020 23:00:00 1,9 1,7 - - 8 4 - - N 1021,3 0,1 0 0,0
26.11.2020 22:00:00 2,3 2,1 - - 9 5 - - NNW 1021,5 0,9 0 0,0
26.11.2020 21:00:00 2,5 2,2 - - 9 5 - - NNW 1021,4 1,9 0 0,0
26.11.2020 20:00:00 3,2 2,9 - - 9 5 - - NNW 1021,5 3,3 0 0,0
26.11.2020 19:00:00 3,6 3,2 - - 8 4 - - NNW 1021,3 5 0 0,0
26.11.2020 18:00:00 4,7 3,6 - - 8 4 - - N 1021,1 9 0 0,0
26.11.2020 17:00:00 6,8 5,9 - - 5 3 - - N 1020,8 7 0 0,0
26.11.2020 16:00:00 7,6 6,5 - - 4 2 - - N 1020,7 11 0 0,0
26.11.2020 15:00:00 7,9 6,2 - - 4 2 - - NE 1020,7 13 0 0,0
26.11.2020 14:00:00 8,1 6,0 - - 5 3 - - NNE 1020,8 13 0 0,0
26.11.2020 13:00:00 8,1 6,3 - - 9 5 - - N 1021,1 13 0 0,0
26.11.2020 12:00:00 7,9 6,1 - - 5 3 - - N 1021,2 12 0 0,0
26.11.2020 11:00:00 7,6 5,7 - - 4 2 - - N 1021,5 13 0 0,0
26.11.2020 10:00:00 7,1 5,8 - - 8 4 - - N 1021,6 12 0 0,0
26.11.2020 09:00:00 6,8 5,8 9,7 11,7 8 4 - - N 1021,6 9 0 0,0
26.11.2020 08:00:00 6,4 5,5 - - 8 4 - - NNW 1021,2 8 0 0,0
26.11.2020 07:00:00 6,4 5,5 - - 5 3 - - NNE 1020,6 9 0 0,0
26.11.2020 06:00:00 6,4 5,5 - - 5 3 - - N 1020,5 8 0 0,0
26.11.2020 05:00:00 6,5 5,7 - - 8 4 - - N 1020,4 7 0 0,0
26.11.2020 04:00:00 6,6 5,8 - - 5 3 - - N 1020,3 5 0 0,0
26.11.2020 03:00:00 6,9 6,0 - - 9 5 - - NNW 1020,2 7 0 0,0
26.11.2020 02:00:00 7,2 6,3 - - 5 3 - - NNW 1019,9 9 0 0,0

tt = Température de l'air
td = dewpoint
tt -20cm = Température de l'air -20cm
tt -100cm = Température de l'air -100cm
ff = Vitesse du vent
fx = gusts
dd = Direction du vent
ppp = reduced air pressure
vv = visibility
sd = Ensoleillement
rr = Quantités de précipitations

stations d'obs. à proximité